When you browse on this site, cookies collect data to enhance your experience and personalize the content and advertising you see.
Visit our Privacy Policy to learn more. By continuing to use the site, you agree to this use of cookies and data.
  • In Romania
  • List of Countries
  • For 7 days
  • Water Temperature
  • Satellite Maps
  • Weather Map
  • Weather Widgets
  • user-avatar
    Login

    Hourly Weather Livry-Gargan

    Today, 16 June, Sunday

    Time Temperature Precipitation Wind Pressure Humidity
    00:00 +14°C° 0 mm 3 mps 759 mmHg 80%
    01:00 +13°C° 0 mm 3 mps 759 mmHg 82%
    02:00 +13°C° 0 mm 3 mps 760 mmHg 85%
    03:00 +13°C° 0 mm 3 mps 760 mmHg 87%
    04:00 +13°C° 0 mm 3 mps 760 mmHg 86%
    05:00 +13°C° 0 mm 3 mps 760 mmHg 85%
    06:00 +14°C° 0 mm 3 mps 760 mmHg 83%
    07:00 +16°C° 0 mm 3 mps 761 mmHg 80%
    08:00 +16°C° 0 mm 3 mps 761 mmHg 77%
    09:00 +17°C° 0 mm 3 mps 761 mmHg 73%
    10:00 +19°C° 0 mm 3 mps 761 mmHg 68%
    11:00 +20°C° 0 mm 3 mps 761 mmHg 63%
    12:00 +22°C° 0 mm 3 mps 761 mmHg 57%
    13:00 +22°C° 0.1 mm 3 mps 761 mmHg 58%
    14:00 +22°C° 0.1 mm 3 mps 760 mmHg 58%
    15:00 +22°C° 0.1 mm 3 mps 760 mmHg 58%
    16:00 +22°C° 0 mm 3 mps 760 mmHg 60%
    17:00 +22°C° 0 mm 3 mps 760 mmHg 62%
    18:00 +23°C° 0 mm 2 mps 760 mmHg 64%
    19:00 +20°C° 0 mm 2 mps 760 mmHg 69%
    20:00 +20°C° 0 mm 1 mps 760 mmHg 73%
    21:00 +19°C° 0 mm 1 mps 760 mmHg 78%
    22:00 +18°C° 0 mm 1 mps 760 mmHg 79%
    23:00 +18°C° 0 mm 1 mps 760 mmHg 81%

    Tomorrow, 17 June, Monday

    Time Temperature Precipitation Wind Pressure Humidity
    00:00 +16°C° 0 mm 1 mps 760 mmHg 82%
    01:00 +16°C° 0 mm 1 mps 760 mmHg 83%
    02:00 +16°C° 0 mm 1 mps 760 mmHg 84%
    03:00 +15°C° 0 mm 1 mps 760 mmHg 85%
    04:00 +15°C° 0 mm 0 mps 760 mmHg 83%
    05:00 +16°C° 0 mm 0 mps 760 mmHg 81%
    06:00 +16°C° 0 mm 0 mps 760 mmHg 79%
    07:00 +18°C° 0 mm 0 mps 760 mmHg 73%
    08:00 +20°C° 0 mm 0 mps 760 mmHg 66%
    09:00 +23°C° 0 mm 1 mps 760 mmHg 60%
    10:00 +25°C° 0 mm 1 mps 760 mmHg 55%
    11:00 +26°C° 0 mm 1 mps 760 mmHg 50%
    12:00 +25°C° 0 mm 0 mps 759 mmHg 45%
    13:00 +27°C° 0 mm 1 mps 759 mmHg 44%
    14:00 +27°C° 0 mm 1 mps 759 mmHg 44%
    15:00 +27°C° 0 mm 2 mps 758 mmHg 44%
    16:00 +27°C° 0 mm 2 mps 758 mmHg 50%
    17:00 +26°C° 0 mm 2 mps 758 mmHg 55%
    18:00 +25°C° 0 mm 2 mps 757 mmHg 60%
    19:00 +24°C° 0 mm 2 mps 758 mmHg 65%
    20:00 +21°C° 0 mm 2 mps 758 mmHg 70%
    21:00 +20°C° 0 mm 2 mps 758 mmHg 76%
    22:00 +20°C° 0 mm 1 mps 758 mmHg 78%
    23:00 +20°C° 0 mm 1 mps 758 mmHg 80%

    Day after tomorrow, 18 June, Tuesday

    Time Temperature Precipitation Wind Pressure Humidity
    00:00 +19°C° 0 mm 1 mps 757 mmHg 82%
    01:00 +18°C° 0 mm 1 mps 757 mmHg 83%
    02:00 +18°C° 0 mm 1 mps 757 mmHg 84%
    03:00 +18°C° 0 mm 1 mps 757 mmHg 85%
    04:00 +18°C° 0 mm 1 mps 757 mmHg 83%
    05:00 +19°C° 0 mm 1 mps 757 mmHg 82%
    06:00 +18°C° 0 mm 2 mps 757 mmHg 80%
    07:00 +20°C° 0 mm 2 mps 756 mmHg 75%
    08:00 +21°C° 0 mm 2 mps 756 mmHg 69%
    09:00 +24°C° 0 mm 2 mps 756 mmHg 64%
    10:00 +25°C° 0 mm 2 mps 756 mmHg 59%
    11:00 +26°C° 0 mm 2 mps 755 mmHg 54%
    12:00 +27°C° 0 mm 2 mps 755 mmHg 50%
    13:00 +28°C° 0 mm 2 mps 755 mmHg 49%
    14:00 +28°C° 0 mm 2 mps 754 mmHg 49%
    15:00 +28°C° 0 mm 2 mps 754 mmHg 48%
    16:00 +28°C° 0.1 mm 2 mps 754 mmHg 53%
    17:00 +27°C° 0.1 mm 2 mps 754 mmHg 57%
    18:00 +26°C° 0.1 mm 2 mps 753 mmHg 62%
    19:00 +25°C° 0 mm 2 mps 753 mmHg 64%
    20:00 +24°C° 0 mm 2 mps 753 mmHg 66%
    21:00 +23°C° 0 mm 2 mps 753 mmHg 68%
    22:00 +21°C° 0 mm 2 mps 753 mmHg 70%
    23:00 +20°C° 0 mm 2 mps 753 mmHg 72%

    19 June, Wednesday

    Time Temperature Precipitation Wind Pressure Humidity
    00:00 +20°C° 0 mm 2 mps 752 mmHg 73%
    01:00 +20°C° 0.1 mm 2 mps 752 mmHg 75%
    02:00 +19°C° 0.1 mm 2 mps 751 mmHg 77%
    03:00 +19°C° 0.1 mm 3 mps 751 mmHg 79%
    04:00 +19°C° 0.4 mm 3 mps 751 mmHg 79%
    05:00 +20°C° 0.4 mm 3 mps 751 mmHg 79%
    06:00 +20°C° 0.4 mm 3 mps 751 mmHg 79%
    07:00 +21°C° 0.5 mm 3 mps 751 mmHg 74%
    08:00 +23°C° 0.5 mm 2 mps 751 mmHg 69%
    09:00 +25°C° 0.5 mm 2 mps 751 mmHg 65%
    10:00 +26°C° 0 mm 3 mps 751 mmHg 61%
    11:00 +27°C° 0 mm 4 mps 751 mmHg 57%
    12:00 +28°C° 0 mm 5 mps 751 mmHg 54%
    13:00 +28°C° 0.4 mm 6 mps 751 mmHg 54%
    14:00 +28°C° 0.4 mm 6 mps 752 mmHg 54%
    15:00 +27°C° 0.4 mm 6 mps 752 mmHg 54%
    16:00 +26°C° 0.2 mm 6 mps 752 mmHg 57%
    17:00 +24°C° 0.2 mm 6 mps 752 mmHg 59%
    18:00 +23°C° 0.2 mm 5 mps 752 mmHg 62%
    19:00 +22°C° 0 mm 5 mps 753 mmHg 65%
    20:00 +21°C° 0 mm 4 mps 753 mmHg 68%
    21:00 +20°C° 0 mm 4 mps 753 mmHg 71%
    22:00 +19°C° 0 mm 4 mps 753 mmHg 75%
    23:00 +18°C° 0 mm 4 mps 754 mmHg 78%

    20 June, Thursday

    Time Temperature Precipitation Wind Pressure Humidity
    00:00 +17°C° 0 mm 4 mps 754 mmHg 82%
    01:00 +17°C° 0 mm 3 mps 754 mmHg 82%
    02:00 +17°C° 0 mm 3 mps 754 mmHg 82%
    03:00 +17°C° 0 mm 3 mps 755 mmHg 81%
    04:00 +17°C° 0 mm 3 mps 755 mmHg 81%
    05:00 +17°C° 0 mm 2 mps 755 mmHg 80%
    06:00 +17°C° 0 mm 2 mps 755 mmHg 79%
    07:00 +18°C° 0 mm 2 mps 756 mmHg 75%
    08:00 +18°C° 0 mm 2 mps 756 mmHg 70%
    09:00 +19°C° 0 mm 2 mps 756 mmHg 66%
    10:00 +20°C° 0 mm 2 mps 756 mmHg 61%
    11:00 +21°C° 0 mm 2 mps 756 mmHg 57%
    12:00 +23°C° 0 mm 2 mps 756 mmHg 53%
    13:00 +23°C° 0.1 mm 2 mps 756 mmHg 56%
    14:00 +23°C° 0.1 mm 2 mps 756 mmHg 59%
    15:00 +21°C° 0.1 mm 2 mps 756 mmHg 62%
    16:00 +21°C° 0.2 mm 2 mps 756 mmHg 64%
    17:00 +20°C° 0.2 mm 2 mps 756 mmHg 66%
    18:00 +20°C° 0.2 mm 2 mps 756 mmHg 68%
    19:00 +19°C° 0 mm 2 mps 756 mmHg 69%
    20:00 +18°C° 0 mm 2 mps 757 mmHg 70%
    21:00 +18°C° 0 mm 2 mps 757 mmHg 71%
    22:00 +17°C° 0 mm 2 mps 757 mmHg 74%
    23:00 +16°C° 0 mm 2 mps 757 mmHg 77%

    21 June, Friday

    Time Temperature Precipitation Wind Pressure Humidity
    00:00 +15°C° 0 mm 2 mps 757 mmHg 80%
    01:00 +14°C° 0 mm 2 mps 757 mmHg 80%
    02:00 +14°C° 0 mm 2 mps 757 mmHg 80%
    03:00 +13°C° 0 mm 2 mps 757 mmHg 80%
    04:00 +13°C° 0 mm 2 mps 758 mmHg 78%
    05:00 +14°C° 0 mm 2 mps 758 mmHg 76%
    06:00 +14°C° 0 mm 2 mps 758 mmHg 74%
    07:00 +16°C° 0 mm 2 mps 758 mmHg 67%
    08:00 +17°C° 0 mm 2 mps 758 mmHg 60%
    09:00 +19°C° 0 mm 2 mps 759 mmHg 53%
    10:00 +20°C° 0 mm 2 mps 759 mmHg 50%
    11:00 +21°C° 0 mm 2 mps 759 mmHg 48%
    12:00 +23°C° 0 mm 2 mps 759 mmHg 46%
    13:00 +23°C° 0 mm 2 mps 759 mmHg 47%
    14:00 +21°C° 0 mm 3 mps 758 mmHg 48%
    15:00 +21°C° 0 mm 3 mps 758 mmHg 50%
    16:00 +21°C° 0 mm 3 mps 758 mmHg 53%
    17:00 +20°C° 0 mm 3 mps 758 mmHg 56%
    18:00 +20°C° 0 mm 3 mps 758 mmHg 60%
    19:00 +19°C° 0 mm 3 mps 759 mmHg 65%
    20:00 +17°C° 0 mm 3 mps 759 mmHg 70%
    21:00 +16°C° 0 mm 2 mps 760 mmHg 75%
    22:00 +15°C° 0 mm 2 mps 760 mmHg 75%
    23:00 +14°C° 0 mm 2 mps 760 mmHg 75%
    Show more